When you browse on this site, cookies collect data to enhance your experience and personalize the content and advertising you see.
Visit our Privacy Policy to learn more. By continuing to use the site, you agree to this use of cookies and data.
  • en Suisse
  • Liste des pays
  • À 7 jours
  • Température de l'eau
  • Carte météo
  • Widgets météo
  • user-avatar
    Se connecter

    Météo par heure à Amiens

    Ce jour, 3 Juin, Mercredi

    Heure Température Précipitation Vent Pression Humidité
    00:00 +14°C° 0 mm 1 m/s 757 mmHg 72%
    01:00 +14°C° 0 mm 1 m/s 756 mmHg 73%
    02:00 +14°C° 0 mm 1 m/s 755 mmHg 74%
    03:00 +13°C° 0 mm 1 m/s 755 mmHg 75%
    04:00 +14°C° 0 mm 1 m/s 754 mmHg 76%
    05:00 +15°C° 0 mm 1 m/s 754 mmHg 77%
    06:00 +16°C° 0 mm 2 m/s 754 mmHg 78%
    07:00 +17°C° 0 mm 2 m/s 754 mmHg 74%
    08:00 +19°C° 0 mm 3 m/s 753 mmHg 70%
    09:00 +20°C° 0 mm 3 m/s 753 mmHg 67%
    10:00 +21°C° 0 mm 3 m/s 752 mmHg 63%
    11:00 +21°C° 0 mm 3 m/s 752 mmHg 60%
    12:00 +22°C° 0 mm 3 m/s 752 mmHg 57%
    13:00 +22°C° 0.1 mm 3 m/s 751 mmHg 57%
    14:00 +22°C° 0.1 mm 4 m/s 751 mmHg 57%
    15:00 +22°C° 0.1 mm 4 m/s 750 mmHg 57%
    16:00 +20°C° 0 mm 4 m/s 750 mmHg 62%
    17:00 +19°C° 0 mm 4 m/s 750 mmHg 67%
    18:00 +18°C° 0 mm 4 m/s 750 mmHg 72%
    19:00 +17°C° 0 mm 4 m/s 750 mmHg 77%
    20:00 +14°C° 0 mm 4 m/s 750 mmHg 82%
    21:00 +12°C° 0 mm 4 m/s 750 mmHg 86%
    22:00 +12°C° 0 mm 4 m/s 750 mmHg 87%
    23:00 +12°C° 0 mm 4 m/s 750 mmHg 88%

    Demain, 4 Juin, Jeudi

    Heure Température Précipitation Vent Pression Humidité
    00:00 +11°C° 0 mm 4 m/s 749 mmHg 89%
    01:00 +11°C° 0 mm 4 m/s 749 mmHg 90%
    02:00 +10°C° 0 mm 4 m/s 749 mmHg 91%
    03:00 +10°C° 0 mm 4 m/s 749 mmHg 91%
    04:00 +11°C° 0 mm 4 m/s 748 mmHg 89%
    05:00 +12°C° 0 mm 4 m/s 748 mmHg 87%
    06:00 +12°C° 0 mm 4 m/s 748 mmHg 85%
    07:00 +13°C° 0.2 mm 4 m/s 748 mmHg 85%
    08:00 +13°C° 0.2 mm 4 m/s 748 mmHg 84%
    09:00 +13°C° 0.2 mm 3 m/s 748 mmHg 84%
    10:00 +13°C° 0.4 mm 4 m/s 748 mmHg 86%
    11:00 +13°C° 0.4 mm 4 m/s 748 mmHg 87%
    12:00 +13°C° 0.4 mm 5 m/s 748 mmHg 89%
    13:00 +13°C° 0.3 mm 5 m/s 748 mmHg 88%
    14:00 +13°C° 0.3 mm 6 m/s 748 mmHg 87%
    15:00 +13°C° 0.3 mm 6 m/s 748 mmHg 86%
    16:00 +12°C° 0.1 mm 5 m/s 748 mmHg 87%
    17:00 +12°C° 0.1 mm 4 m/s 748 mmHg 88%
    18:00 +11°C° 0.1 mm 4 m/s 748 mmHg 90%
    19:00 +10°C° 0 mm 3 m/s 749 mmHg 91%
    20:00 +10°C° 0 mm 2 m/s 749 mmHg 93%
    21:00 +9°C° 0 mm 2 m/s 750 mmHg 94%
    22:00 +9°C° 0 mm 2 m/s 750 mmHg 94%
    23:00 +9°C° 0 mm 2 m/s 750 mmHg 94%

    Après-demain, 5 Juin, Vendredi

    Heure Température Précipitation Vent Pression Humidité
    00:00 +8°C° 0 mm 3 m/s 750 mmHg 94%
    01:00 +9°C° 0 mm 3 m/s 749 mmHg 94%
    02:00 +8°C° 0 mm 4 m/s 749 mmHg 94%
    03:00 +8°C° 0 mm 5 m/s 749 mmHg 94%
    04:00 +9°C° 0.1 mm 5 m/s 748 mmHg 93%
    05:00 +9°C° 0.1 mm 6 m/s 747 mmHg 92%
    06:00 +10°C° 0.1 mm 6 m/s 747 mmHg 91%
    07:00 +10°C° 0.8 mm 6 m/s 747 mmHg 91%
    08:00 +11°C° 0.8 mm 7 m/s 746 mmHg 90%
    09:00 +12°C° 0.8 mm 7 m/s 746 mmHg 89%
    10:00 +13°C° 0.1 mm 8 m/s 746 mmHg 79%
    11:00 +15°C° 0.1 mm 8 m/s 747 mmHg 70%
    12:00 +16°C° 0.1 mm 9 m/s 747 mmHg 60%
    13:00 +16°C° 0 mm 9 m/s 747 mmHg 60%
    14:00 +16°C° 0 mm 8 m/s 747 mmHg 59%
    15:00 +16°C° 0 mm 8 m/s 747 mmHg 59%
    16:00 +15°C° 0.1 mm 7 m/s 747 mmHg 66%
    17:00 +12°C° 0.1 mm 7 m/s 747 mmHg 74%
    18:00 +11°C° 0.1 mm 6 m/s 747 mmHg 81%
    19:00 +10°C° 0 mm 6 m/s 747 mmHg 83%
    20:00 +10°C° 0 mm 5 m/s 748 mmHg 85%
    21:00 +10°C° 0 mm 4 m/s 748 mmHg 87%
    22:00 +9°C° 0 mm 5 m/s 748 mmHg 88%
    23:00 +8°C° 0 mm 5 m/s 748 mmHg 90%

    6 Juin, Samedi

    Heure Température Précipitation Vent Pression Humidité
    00:00 +8°C° 0 mm 5 m/s 749 mmHg 91%
    01:00 +7°C° 0 mm 4 m/s 749 mmHg 92%
    02:00 +7°C° 0 mm 4 m/s 749 mmHg 93%
    03:00 +7°C° 0 mm 3 m/s 749 mmHg 94%
    04:00 +7°C° 0 mm 4 m/s 750 mmHg 90%
    05:00 +8°C° 0 mm 4 m/s 750 mmHg 86%
    06:00 +10°C° 0 mm 4 m/s 750 mmHg 81%
    07:00 +10°C° 0.1 mm 5 m/s 750 mmHg 76%
    08:00 +11°C° 0.1 mm 6 m/s 750 mmHg 70%
    09:00 +13°C° 0.1 mm 6 m/s 751 mmHg 65%
    10:00 +14°C° 0.1 mm 6 m/s 750 mmHg 62%
    11:00 +14°C° 0.1 mm 7 m/s 750 mmHg 59%
    12:00 +15°C° 0.1 mm 7 m/s 750 mmHg 56%
    13:00 +15°C° 0.1 mm 8 m/s 750 mmHg 56%
    14:00 +15°C° 0.1 mm 8 m/s 750 mmHg 56%
    15:00 +13°C° 0.1 mm 8 m/s 750 mmHg 56%
    16:00 +12°C° 0 mm 8 m/s 751 mmHg 59%
    17:00 +12°C° 0 mm 7 m/s 751 mmHg 61%
    18:00 +11°C° 0 mm 7 m/s 751 mmHg 64%
    19:00 +9°C° 0 mm 6 m/s 752 mmHg 69%
    20:00 +8°C° 0 mm 5 m/s 752 mmHg 74%
    21:00 +6°C° 0 mm 4 m/s 752 mmHg 79%
    22:00 +6°C° 0 mm 4 m/s 752 mmHg 80%
    23:00 +6°C° 0 mm 5 m/s 752 mmHg 80%

    7 Juin, Dimanche

    Heure Température Précipitation Vent Pression Humidité
    00:00 +5°C° 0 mm 5 m/s 752 mmHg 81%
    01:00 +6°C° 0 mm 5 m/s 752 mmHg 83%
    02:00 +6°C° 0 mm 5 m/s 752 mmHg 86%
    03:00 +6°C° 0 mm 5 m/s 752 mmHg 88%
    04:00 +7°C° 0 mm 6 m/s 752 mmHg 86%
    05:00 +8°C° 0 mm 6 m/s 753 mmHg 84%
    06:00 +9°C° 0 mm 6 m/s 753 mmHg 82%
    07:00 +10°C° 0.1 mm 7 m/s 753 mmHg 79%
    08:00 +11°C° 0.1 mm 7 m/s 753 mmHg 77%
    09:00 +12°C° 0.1 mm 7 m/s 753 mmHg 74%
    10:00 +12°C° 0.4 mm 7 m/s 754 mmHg 74%
    11:00 +14°C° 0.4 mm 7 m/s 754 mmHg 74%
    12:00 +14°C° 0.4 mm 6 m/s 754 mmHg 75%
    13:00 +14°C° 0.7 mm 6 m/s 754 mmHg 76%
    14:00 +15°C° 0.7 mm 6 m/s 754 mmHg 78%
    15:00 +15°C° 0.7 mm 6 m/s 754 mmHg 79%
    16:00 +14°C° 0.4 mm 6 m/s 754 mmHg 81%
    17:00 +14°C° 0.4 mm 5 m/s 754 mmHg 82%
    18:00 +14°C° 0.4 mm 4 m/s 754 mmHg 84%
    19:00 +13°C° 0 mm 4 m/s 754 mmHg 87%
    20:00 +12°C° 0 mm 4 m/s 754 mmHg 90%
    21:00 +11°C° 0 mm 4 m/s 754 mmHg 93%
    22:00 +11°C° 0 mm 4 m/s 754 mmHg 93%
    23:00 +10°C° 0 mm 5 m/s 754 mmHg 93%

    8 Juin, Lundi

    Heure Température Précipitation Vent Pression Humidité
    00:00 +10°C° 0 mm 5 m/s 754 mmHg 93%
    01:00 +10°C° 0.3 mm 5 m/s 754 mmHg 94%
    02:00 +10°C° 0.3 mm 5 m/s 754 mmHg 95%
    03:00 +10°C° 0.3 mm 5 m/s 754 mmHg 95%
    04:00 +10°C° 0.5 mm 5 m/s 754 mmHg 95%
    05:00 +12°C° 0.5 mm 5 m/s 754 mmHg 95%
    06:00 +12°C° 0.5 mm 5 m/s 754 mmHg 95%
    07:00 +12°C° 0.3 mm 5 m/s 755 mmHg 93%
    08:00 +13°C° 0.3 mm 5 m/s 755 mmHg 91%
    09:00 +13°C° 0.3 mm 5 m/s 756 mmHg 89%
    10:00 +14°C° 0.3 mm 5 m/s 756 mmHg 87%
    11:00 +15°C° 0.3 mm 6 m/s 756 mmHg 85%
    12:00 +15°C° 0.3 mm 7 m/s 756 mmHg 82%
    13:00 +16°C° 0.3 mm 7 m/s 756 mmHg 79%
    14:00 +16°C° 0.3 mm 7 m/s 756 mmHg 76%
    15:00 +17°C° 0.3 mm 7 m/s 756 mmHg 73%
    16:00 +16°C° 0 mm 7 m/s 756 mmHg 75%
    17:00 +16°C° 0 mm 6 m/s 756 mmHg 76%
    18:00 +15°C° 0 mm 6 m/s 756 mmHg 78%
    19:00 +14°C° 0 mm 5 m/s 757 mmHg 83%
    20:00 +13°C° 0 mm 4 m/s 757 mmHg 89%
    21:00 +11°C° 0 mm 4 m/s 757 mmHg 95%
    22:00 +11°C° 0 mm 3 m/s 757 mmHg 95%
    23:00 +11°C° 0 mm 3 m/s 757 mmHg 95%
    Voir plus